Wetterdaten: aktuell Mittwoch, 28.02.2024 10:25
Datum Zeit Temp. A. Feuchte A. Luftdruck Regen Wind Richtung Richtung Sonnenschein UV Solar Taupunkt Windchill Windben
28.02.2024 10:25 4,4 C 87 % 1018,3 hPa 0,0 l/m 11,3 km/h (2 Bft) SW 225 0 min 0,0 UV-I 86 W/m 2,4 C 0,5 C 19,3 km/h (3 Bft)
28.02.2024 09:25 3,7 C 87 % 1018,1 hPa 0,0 l/m 12,9 km/h (3 Bft) SW 225 0 min 0,0 UV-I 78 W/m 1,7 C -1,3 C 19,3 km/h (3 Bft)
28.02.2024 08:25 3,2 C 86 % 1017,8 hPa 0,0 l/m 11,3 km/h (2 Bft) S-SW 202 0 min 0,0 UV-I 38 W/m 1,1 C -0,8 C 16,1 km/h (3 Bft)
28.02.2024 07:25 2,8 C 87 % 1017,3 hPa 0,2 l/m 9,7 km/h (2 Bft) S-SW 202 0 min 0,0 UV-I 3 W/m 0,9 C -0,1 C 16,1 km/h (3 Bft)
28.02.2024 06:25 2,9 C 85 % 1017,2 hPa 0,0 l/m 11,3 km/h (2 Bft) SW 225 0 min 0,0 UV-I 0 W/m 0,6 C -1,2 C 14,5 km/h (3 Bft)
28.02.2024 05:25 3,1 C 85 % 1017,1 hPa 0,0 l/m 9,7 km/h (2 Bft) SW 225 0 min 0,0 UV-I 0 W/m 0,8 C 0,2 C 12,9 km/h (3 Bft)
28.02.2024 04:25 3,3 C 84 % 1017,2 hPa 0,0 l/m 11,3 km/h (2 Bft) SW 225 0 min 0,0 UV-I 0 W/m 0,9 C -0,7 C 14,5 km/h (3 Bft)
28.02.2024 03:25 3,2 C 85 % 1017,4 hPa 0,0 l/m 1,6 km/h (1 Bft) W 270 0 min 0,0 UV-I 0 W/m 0,9 C 3,2 C 8,0 km/h (2 Bft)
28.02.2024 02:25 3,3 C 83 % 1017,5 hPa 0,0 l/m 9,7 km/h (2 Bft) SW 225 0 min 0,0 UV-I 0 W/m 0,7 C 0,4 C 19,3 km/h (3 Bft)
28.02.2024 01:25 3,6 C 82 % 1017,5 hPa 0,0 l/m 11,3 km/h (2 Bft) SW 225 0 min 0,0 UV-I 0 W/m 0,8 C -0,4 C 20,9 km/h (4 Bft)
28.02.2024 00:25 3,7 C 87 % 1017,9 hPa 0,0 l/m 3,2 km/h (1 Bft) SW 225 0 min 0,0 UV-I 0 W/m 1,7 C 3,7 C 9,7 km/h (2 Bft)
27.02.2024 23:25 3,6 C 88 % 1017,8 hPa 0,0 l/m 3,2 km/h (1 Bft) SW 225 0 min 0,0 UV-I 0 W/m 1,8 C 3,6 C 6,4 km/h (2 Bft)
27.02.2024 22:25 3,6 C 88 % 1017,9 hPa 0,0 l/m 3,2 km/h (1 Bft) S 180 0 min 0,0 UV-I 0 W/m 1,8 C 3,6 C 6,4 km/h (2 Bft)
27.02.2024 21:25 3,7 C 87 % 1017,8 hPa 0,0 l/m 3,2 km/h (1 Bft) S 180 0 min 0,0 UV-I 0 W/m 1,7 C 3,7 C 6,4 km/h (2 Bft)
27.02.2024 20:25 3,7 C 87 % 1017,8 hPa 0,0 l/m 6,4 km/h (2 Bft) SO 135 0 min 0,0 UV-I 0 W/m 1,7 C 3,7 C 11,3 km/h (2 Bft)
27.02.2024 19:25 3,9 C 86 % 1017,8 hPa 0,0 l/m 4,8 km/h (1 Bft) S-SO 157 0 min 0,0 UV-I 0 W/m 1,8 C 3,9 C 8,0 km/h (2 Bft)
27.02.2024 18:25 4,6 C 83 % 1017,4 hPa 0,0 l/m 0,0 km/h (0 Bft) O 90 0 min 0,0 UV-I 0 W/m 2,0 C 4,6 C 1,6 km/h (1 Bft)
27.02.2024 17:25 4,7 C 82 % 1017,4 hPa 0,0 l/m 3,2 km/h (1 Bft) SO 135 0 min 0,0 UV-I 0 W/m 1,9 C 4,7 C 4,8 km/h (1 Bft)
27.02.2024 16:25 4,7 C 82 % 1017,3 hPa 0,0 l/m 3,2 km/h (1 Bft) SO 135 0 min 0,0 UV-I 39 W/m 1,9 C 4,7 C 4,8 km/h (1 Bft)
27.02.2024 15:25 4,8 C 82 % 1017,4 hPa 0,0 l/m 1,6 km/h (1 Bft) W 270 0 min 0,0 UV-I 69 W/m 2,0 C 4,8 C 6,4 km/h (2 Bft)
27.02.2024 14:25 4,6 C 83 % 1017,3 hPa 0,0 l/m 4,8 km/h (1 Bft) O-SO 112 0 min 0,0 UV-I 135 W/m 2,0 C 4,6 C 4,8 km/h (1 Bft)
27.02.2024 13:25 4,4 C 85 % 1017,9 hPa 0,0 l/m 1,6 km/h (1 Bft) N 360 0 min 0,0 UV-I 108 W/m 2,1 C 4,4 C 3,2 km/h (1 Bft)
27.02.2024 12:25 4,1 C 85 % 1018,1 hPa 0,0 l/m 3,2 km/h (1 Bft) S-SW 202 0 min 0,0 UV-I 114 W/m 1,8 C 4,1 C 8,0 km/h (2 Bft)
27.02.2024 11:25 4,1 C 86 % 1018,5 hPa 0,0 l/m 8,0 km/h (2 Bft) O-SO 112 0 min 0,0 UV-I 85 W/m 2,0 C 2,7 C 11,3 km/h (2 Bft)
27.02.2024 11:00 4,1 C 86 % 1018,5 hPa 0,0 l/m 3,2 km/h (1 Bft) O 90 0 min 0,0 UV-I 86 W/m 2,0 C 4,1 C 8,0 km/h (2 Bft)
_ Min-Zeit 07:10 15:10 05:15 - 12:20 - - - - - 06:00 09:15 17:35
Minimum _ 2,6 C 81 % 1017,1 hPa - 0,0 km/h (0 Bft) - - - - - 0,6 C -1,4 C 0,0 km/h (0 Bft)
_ Max-Zeit 15:00 21:20 11:30 06:55 09:15 - - 11:00 11:00 14:00 10:05 14:45 01:15
Maximum _ 5,0 C 88 % 1018,6 hPa 0,2 l/m 12,9 km/h
SW (3 Bft)
- - 0 min 0,0 UV-I 165 W/m 2,4 C 4,9 C 22,5 km/h
SW (4 Bft)
Durchschnitt _ 3,8 C 85 % 1017,7 hPa #0,2 l/m 5,4 km/h (2 Bft) SW - #0 min. 0,0 UV-I 56 W/m 1,6 C 2,9 C 10,0 km/h (2 Bft)